Location: Prairie Dale
(45.6972°N, 104.5033°W)
Time: 17:03:11
(UTC+00:00)

STARS - Pass Details

Date: 01 July 2022
Orbit: 620 x 637 km, 98.2° (Epoch: 18 August)

Event Time Altitude Azimuth Distance (km) Brightness Sun altitude
Rises 04:45:31 0° 26° (NNE) 2,933 ? -14.5°
Reaches altitude 10° 04:48:10 10° 42° (NE) 2,016 ? -14.8°
Maximum altitude 04:51:34 22° 93° (E) 1,388 ? -15.1°
Enters shadow 04:52:36 20° 114° (ESE) 1,456 ? -15.2°
